Location: Poughquag
(41.6090°N, 73.6820°W)
Time: 23:32:26
(UTC-05:00)

Tiros 1 despin weight - Pass Details

Date: 14 December 2023
Orbit: 581 x 624 km, 48.2° (Epoch: 21 February)

Event Time Altitude Azimuth Distance (km) Brightness Sun altitude
Rises 17:22:52 0° 289° (WNW) 2,817 ? -10.5°
Reaches altitude 10° 17:25:19 10° 298° (WNW) 1,910 ? -10.9°
Maximum altitude 17:29:20 35° 5° (N) 958 ? -11.6°
Enters shadow 17:32:01 18° 62° (ENE) 1,462 ? -12.1°
